Time,TemperatureF,DewpointF,PressureIn,WindDirection,WindDirectionDegrees,WindSpeedMPH,WindSpeedGustMPH,Humidity,HourlyPrecipIn,Conditions,Clouds,dailyrainin,SoftwareType,DateUTC
2013-11-07 00:01:00,50.4,38.6,29.59,North,0,6.3,6.3,64,0.00,,,0.00,LWC V2.10 B1813,2013-11-07 06:01:00,
2013-11-07 00:06:00,50.4,38.6,29.59,North,11,3.6,6.3,64,0.00,,,0.00,LWC V2.10 B1813,2013-11-07 06:06:00,
2013-11-07 00:11:00,50.2,38.5,29.59,NNE,12,3.6,5.8,64,0.00,,,0.00,LWC V2.10 B1813,2013-11-07 06:11:00,
2013-11-07 00:16:00,50.2,38.5,29.59,North,353,4.0,7.6,64,0.00,,,0.00,LWC V2.10 B1813,2013-11-07 06:16:00,
2013-11-07 00:21:00,50.2,38.5,29.59,NNE,22,4.0,4.0,64,0.00,,,0.00,LWC V2.10 B1813,2013-11-07 06:21:00,
2013-11-07 00:26:00,50.0,38.3,29.59,North,4,3.6,4.9,64,0.00,,,0.00,LWC V2.10 B1813,2013-11-07 06:26:00,
2013-11-07 00:31:00,50.0,38.3,29.59,North,357,2.7,6.3,64,0.00,,,0.00,LWC V2.10 B1813,2013-11-07 06:31:00,
2013-11-07 00:36:00,50.0,37.9,29.59,North,357,2.7,4.9,63,0.00,,,0.00,LWC V2.10 B1813,2013-11-07 06:36:00,
2013-11-07 00:41:00,49.8,38.1,29.59,NNE,18,3.6,3.6,64,0.00,,,0.00,LWC V2.10 B1813,2013-11-07 06:41:00,
2013-11-07 00:46:00,49.6,38.0,29.59,NNW,344,4.0,5.8,64,0.00,,,0.00,LWC V2.10 B1813,2013-11-07 06:46:00,
2013-11-07 00:51:00,49.6,38.0,29.62,North,353,0.0,3.6,64,0.00,,,0.00,LWC V2.10 B1813,2013-11-07 06:51:00,
2013-11-07 00:56:00,49.5,37.8,29.62,NW,323,0.0,3.6,64,0.00,,,0.00,LWC V2.10 B1813,2013-11-07 06:56:00,
2013-11-07 01:01:00,49.3,38.0,29.62,NW,313,2.7,3.1,65,0.00,,,0.00,LWC V2.10 B1813,2013-11-07 07:01:00,
2013-11-07 01:06:00,48.9,38.5,29.62,NW,321,2.2,3.6,67,0.00,,,0.00,LWC V2.10 B1813,2013-11-07 07:06:00,
2013-11-07 01:11:00,48.6,38.5,29.62,NNW,328,2.7,2.7,68,0.00,,,0.00,LWC V2.10 B1813,2013-11-07 07:11:00,
2013-11-07 01:16:00,48.2,38.9,29.62,NW,314,0.0,0.0,70,0.00,,,0.00,LWC V2.10 B1813,2013-11-07 07:16:00,
2013-11-07 01:21:00,47.8,38.9,29.62,NNW,327,0.0,3.1,71,0.00,,,0.00,LWC V2.10 B1813,2013-11-07 07:21:00,
2013-11-07 01:26:00,47.8,39.3,29.62,NW,312,2.7,3.6,72,0.00,,,0.00,LWC V2.10 B1813,2013-11-07 07:26:00,
2013-11-07 01:31:00,47.7,39.1,29.62,NW,311,0.0,5.4,72,0.00,,,0.00,LWC V2.10 B1813,2013-11-07 07:31:00,
2013-11-07 01:36:00,47.7,39.1,29.62,NW,322,0.0,4.0,72,0.00,,,0.00,LWC V2.10 B1813,2013-11-07 07:36:00,
2013-11-07 01:41:00,47.7,39.1,29.62,NW,321,3.6,3.6,72,0.00,,,0.00,LWC V2.10 B1813,2013-11-07 07:41:00,
2013-11-07 01:46:00,47.5,38.6,29.62,NNW,340,3.6,3.6,71,0.00,,,0.00,LWC V2.10 B1813,2013-11-07 07:46:00,
2013-11-07 01:51:00,47.5,38.9,29.62,NNW,343,2.7,2.7,72,0.00,,,0.00,LWC V2.10 B1813,2013-11-07 07:51:00,
2013-11-07 01:56:00,47.3,38.7,29.62,NW,304,2.7,3.1,72,0.00,,,0.00,LWC V2.10 B1813,2013-11-07 07:56:00,
2013-11-07 02:01:00,47.1,38.9,29.62,NNW,331,0.0,3.1,73,0.00,,,0.00,LWC V2.10 B1813,2013-11-07 08:01:00,
2013-11-07 02:06:00,47.1,38.9,29.62,NNE,25,0.0,3.6,73,0.00,,,0.00,LWC V2.10 B1813,2013-11-07 08:06:00,
2013-11-07 02:11:00,46.9,38.7,29.62,North,6,3.6,6.3,73,0.00,,,0.00,LWC V2.10 B1813,2013-11-07 08:11:00,
2013-11-07 02:16:00,47.1,38.2,29.62,North,357,0.0,0.0,71,0.00,,,0.00,LWC V2.10 B1813,2013-11-07 08:16:00,
2013-11-07 02:21:00,47.1,38.2,29.62,NNW,331,2.7,6.7,71,0.00,,,0.00,LWC V2.10 B1813,2013-11-07 08:21:00,
2013-11-07 02:26:00,47.1,37.8,29.62,NNW,345,3.6,7.6,70,0.00,,,0.00,LWC V2.10 B1813,2013-11-07 08:26:00,
2013-11-07 02:31:00,47.1,37.8,29.62,North,357,5.4,6.3,70,0.00,,,0.00,LWC V2.10 B1813,2013-11-07 08:31:00,
2013-11-07 02:36:00,47.1,37.5,29.62,North,357,0.0,5.4,69,0.00,,,0.00,LWC V2.10 B1813,2013-11-07 08:36:00,
2013-11-07 02:41:00,46.8,37.1,29.62,North,357,2.7,4.9,69,0.00,,,0.00,LWC V2.10 B1813,2013-11-07 08:41:00,
2013-11-07 02:46:00,46.8,37.1,29.62,NNW,340,3.1,4.0,69,0.00,,,0.00,LWC V2.10 B1813,2013-11-07 08:46:00,
2013-11-07 02:51:00,46.6,37.0,29.62,North,0,4.0,7.2,69,0.00,,,0.00,LWC V2.10 B1813,2013-11-07 08:51:00,
2013-11-07 02:56:00,46.4,36.8,29.62,North,353,3.1,4.9,69,0.00,,,0.00,LWC V2.10 B1813,2013-11-07 08:56:00,
2013-11-07 03:01:00,46.2,36.6,29.62,North,9,2.2,6.3,69,0.00,,,0.00,LWC V2.10 B1813,2013-11-07 09:01:00,
2013-11-07 03:06:00,46.0,36.4,29.62,North,353,4.0,5.8,69,0.00,,,0.00,LWC V2.10 B1813,2013-11-07 09:06:00,
2013-11-07 03:11:00,46.0,36.4,29.62,North,357,3.1,5.8,69,0.00,,,0.00,LWC V2.10 B1813,2013-11-07 09:11:00,
2013-11-07 03:16:00,46.0,36.4,29.62,North,357,4.0,5.8,69,0.00,,,0.00,LWC V2.10 B1813,2013-11-07 09:16:00,
2013-11-07 03:21:00,45.9,36.3,29.62,NNW,328,3.1,4.0,69,0.00,,,0.00,LWC V2.10 B1813,2013-11-07 09:21:00,
2013-11-07 03:26:00,45.7,36.1,29.62,North,357,3.1,4.5,69,0.00,,,0.00,LWC V2.10 B1813,2013-11-07 09:26:00,
2013-11-07 03:31:00,45.5,35.9,29.62,NNE,14,5.4,5.4,69,0.00,,,0.00,LWC V2.10 B1813,2013-11-07 09:31:00,
2013-11-07 03:36:00,45.5,35.9,29.62,North,353,5.4,5.4,69,0.00,,,0.00,LWC V2.10 B1813,2013-11-07 09:36:00,
2013-11-07 03:41:00,45.5,35.9,29.62,North,11,4.0,6.3,69,0.00,,,0.00,LWC V2.10 B1813,2013-11-07 09:41:00,
2013-11-07 03:46:00,45.5,35.9,29.62,NNW,348,4.0,6.3,69,0.00,,,0.00,LWC V2.10 B1813,2013-11-07 09:46:00,
2013-11-07 03:51:00,45.5,35.9,29.62,North,2,2.2,5.8,69,0.00,,,0.00,LWC V2.10 B1813,2013-11-07 09:51:00,
2013-11-07 03:56:00,45.3,35.8,29.62,North,7,4.0,6.3,69,0.00,,,0.00,LWC V2.10 B1813,2013-11-07 09:56:00,
2013-11-07 04:01:00,45.3,35.8,29.62,NNW,334,3.6,5.8,69,0.00,,,0.00,LWC V2.10 B1813,2013-11-07 10:01:00,
2013-11-07 04:06:00,45.1,35.6,29.65,NNW,332,5.8,5.8,69,0.00,,,0.00,LWC V2.10 B1813,2013-11-07 10:06:00,
2013-11-07 04:11:00,45.1,35.6,29.65,North,7,2.2,3.1,69,0.00,,,0.00,LWC V2.10 B1813,2013-11-07 10:11:00,
2013-11-07 04:16:00,45.1,35.6,29.65,NW,319,2.2,4.0,69,0.00,,,0.00,LWC V2.10 B1813,2013-11-07 10:16:00,
2013-11-07 04:21:00,45.1,35.6,29.65,North,350,5.8,5.8,69,0.00,,,0.00,LWC V2.10 B1813,2013-11-07 10:21:00,
2013-11-07 04:26:00,45.1,35.6,29.65,NNE,15,4.0,4.0,69,0.00,,,0.00,LWC V2.10 B1813,2013-11-07 10:26:00,
2013-11-07 04:31:00,45.0,35.4,29.65,NW,312,2.7,3.1,69,0.00,,,0.00,LWC V2.10 B1813,2013-11-07 10:31:00,
2013-11-07 04:36:00,45.0,35.4,29.65,North,353,2.7,2.7,69,0.00,,,0.00,LWC V2.10 B1813,2013-11-07 10:36:00,
2013-11-07 04:41:00,44.8,35.2,29.65,NNW,337,2.2,3.6,69,0.00,,,0.00,LWC V2.10 B1813,2013-11-07 10:41:00,
2013-11-07 04:46:00,44.8,35.6,29.65,North,353,2.7,3.1,70,0.00,,,0.00,LWC V2.10 B1813,2013-11-07 10:46:00,
2013-11-07 04:51:00,44.6,35.4,29.65,NW,314,2.7,4.0,70,0.00,,,0.00,LWC V2.10 B1813,2013-11-07 10:51:00,
2013-11-07 04:56:00,44.6,35.4,29.65,WNW,303,2.7,3.6,70,0.00,,,0.00,LWC V2.10 B1813,2013-11-07 10:56:00,
2013-11-07 05:01:00,44.4,35.6,29.65,NNW,328,3.6,3.6,71,0.00,,,0.00,LWC V2.10 B1813,2013-11-07 11:01:00,
2013-11-07 05:06:00,44.2,35.4,29.65,North,357,0.0,0.0,71,0.00,,,0.00,LWC V2.10 B1813,2013-11-07 11:06:00,
2013-11-07 05:11:00,44.1,35.6,29.65,WNW,302,0.0,3.1,72,0.00,,,0.00,LWC V2.10 B1813,2013-11-07 11:11:00,
2013-11-07 05:16:00,44.1,35.6,29.65,WNW,295,0.0,0.0,72,0.00,,,0.00,LWC V2.10 B1813,2013-11-07 11:16:00,
2013-11-07 05:21:00,44.1,36.0,29.65,WNW,299,0.0,0.0,73,0.00,,,0.00,LWC V2.10 B1813,2013-11-07 11:21:00,
2013-11-07 05:26:00,43.9,36.1,29.65,NW,321,0.0,4.0,74,0.00,,,0.00,LWC V2.10 B1813,2013-11-07 11:26:00,
2013-11-07 05:31:00,43.7,36.0,29.65,WNW,291,2.7,3.6,74,0.00,,,0.00,LWC V2.10 B1813,2013-11-07 11:31:00,
2013-11-07 05:34:00,43.7,36.0,29.68,WNW,288,3.1,3.1,74,0.00,,,0.00,LWC V2.10 B1813,2013-11-07 11:34:00,
2013-11-07 05:39:00,43.5,36.1,29.68,NW,307,0.0,0.0,75,0.00,,,0.00,LWC V2.10 B1813,2013-11-07 11:39:00,
2013-11-07 05:44:00,43.3,36.3,29.68,NW,307,0.0,0.0,76,0.00,,,0.00,LWC V2.10 B1813,2013-11-07 11:44:00,
2013-11-07 05:49:00,43.0,35.9,29.68,NW,317,0.0,0.0,76,0.00,,,0.00,LWC V2.10 B1813,2013-11-07 11:49:00,
2013-11-07 05:54:00,42.8,36.1,29.68,NW,316,0.0,3.6,77,0.00,,,0.00,LWC V2.10 B1813,2013-11-07 11:54:00,
2013-11-07 05:59:00,42.6,35.9,29.68,WNW,301,2.2,2.7,77,0.00,,,0.00,LWC V2.10 B1813,2013-11-07 11:59:00,
2013-11-07 06:04:00,42.8,35.8,29.68,WNW,297,0.0,2.2,76,0.00,,,0.00,LWC V2.10 B1813,2013-11-07 12:04:00,
2013-11-07 06:09:00,42.8,36.1,29.68,NW,320,0.0,3.6,77,0.00,,,0.00,LWC V2.10 B1813,2013-11-07 12:09:00,
2013-11-07 06:14:00,42.8,36.1,29.68,WNW,301,2.7,2.7,77,0.00,,,0.00,LWC V2.10 B1813,2013-11-07 12:14:00,
2013-11-07 06:19:00,42.4,35.7,29.68,NW,316,2.7,3.6,77,0.00,,,0.00,LWC V2.10 B1813,2013-11-07 12:19:00,
2013-11-07 06:24:00,42.6,36.2,29.68,West,277,2.7,3.6,78,0.00,,,0.00,LWC V2.10 B1813,2013-11-07 12:24:00,
2013-11-07 06:29:00,42.4,36.1,29.68,West,271,0.0,0.0,78,0.00,,,0.00,LWC V2.10 B1813,2013-11-07 12:29:00,
2013-11-07 06:34:00,42.4,36.1,29.68,WNW,288,0.0,2.7,78,0.00,,,0.00,LWC V2.10 B1813,2013-11-07 12:34:00,
2013-11-07 06:39:00,42.4,36.1,29.68,West,281,0.0,3.6,78,0.00,,,0.00,LWC V2.10 B1813,2013-11-07 12:39:00,
2013-11-07 06:44:00,42.1,35.7,29.68,WNW,301,2.7,2.7,78,0.00,,,0.00,LWC V2.10 B1813,2013-11-07 12:44:00,
2013-11-07 06:49:00,41.7,35.4,29.71,WSW,240,0.0,2.2,78,0.00,,,0.00,LWC V2.10 B1813,2013-11-07 12:49:00,
2013-11-07 06:54:00,41.7,35.4,29.71,WSW,240,0.0,0.0,78,0.00,,,0.00,LWC V2.10 B1813,2013-11-07 12:54:00,
2013-11-07 06:59:00,41.7,35.4,29.71,WNW,287,2.2,2.2,78,0.00,,,0.00,LWC V2.10 B1813,2013-11-07 12:59:00,
2013-11-07 07:04:00,41.9,35.5,29.71,WNW,287,0.0,0.0,78,0.00,,,0.00,LWC V2.10 B1813,2013-11-07 13:04:00,
2013-11-07 07:09:00,42.1,35.7,29.71,West,259,0.0,4.0,78,0.00,,,0.00,LWC V2.10 B1813,2013-11-07 13:09:00,
2013-11-07 07:14:00,42.3,35.9,29.71,WNW,298,0.0,0.0,78,0.00,,,0.00,LWC V2.10 B1813,2013-11-07 13:14:00,
2013-11-07 07:19:00,42.3,35.9,29.71,SSW,206,0.0,2.7,78,0.00,,,0.00,LWC V2.10 B1813,2013-11-07 13:19:00,
2013-11-07 07:24:00,42.6,36.2,29.71,NNW,342,0.0,0.0,78,0.00,,,0.00,LWC V2.10 B1813,2013-11-07 13:24:00,
2013-11-07 07:29:00,43.0,36.6,29.71,NNW,338,0.0,0.0,78,0.00,,,0.00,LWC V2.10 B1813,2013-11-07 13:29:00,
2013-11-07 07:34:00,43.3,36.6,29.71,NNW,341,0.0,6.3,77,0.00,,,0.00,LWC V2.10 B1813,2013-11-07 13:34:00,
2013-11-07 07:39:00,43.9,37.1,29.71,NNW,331,2.7,4.0,77,0.00,,,0.00,LWC V2.10 B1813,2013-11-07 13:39:00,
2013-11-07 07:44:00,44.2,37.2,29.71,NNW,334,3.6,4.0,76,0.00,,,0.00,LWC V2.10 B1813,2013-11-07 13:44:00,
2013-11-07 07:49:00,44.4,37.0,29.71,NNW,339,3.1,4.0,75,0.00,,,0.00,LWC V2.10 B1813,2013-11-07 13:49:00,
2013-11-07 07:54:00,44.6,37.2,29.71,NNW,328,4.0,4.9,75,0.00,,,0.00,LWC V2.10 B1813,2013-11-07 13:54:00,
2013-11-07 07:59:00,45.0,37.2,29.71,NNW,342,2.7,3.1,74,0.00,,,0.00,LWC V2.10 B1813,2013-11-07 13:59:00,
2013-11-07 08:04:00,45.3,37.2,29.71,North,357,5.8,6.3,73,0.00,,,0.00,LWC V2.10 B1813,2013-11-07 14:04:00,
2013-11-07 08:09:00,45.5,37.4,29.71,NW,317,3.1,5.8,73,0.00,,,0.00,LWC V2.10 B1813,2013-11-07 14:09:00,
2013-11-07 08:14:00,46.0,37.5,29.71,North,6,2.7,4.0,72,0.00,,,0.00,LWC V2.10 B1813,2013-11-07 14:14:00,
2013-11-07 08:19:00,46.4,37.5,29.71,NW,305,3.6,5.4,71,0.00,,,0.00,LWC V2.10 B1813,2013-11-07 14:19:00,
2013-11-07 08:24:00,46.9,38.0,29.71,NW,322,2.2,3.1,71,0.00,,,0.00,LWC V2.10 B1813,2013-11-07 14:24:00,
2013-11-07 08:29:00,47.3,38.0,29.71,NNW,338,7.6,7.6,70,0.00,,,0.00,LWC V2.10 B1813,2013-11-07 14:29:00,
2013-11-07 08:34:00,47.8,38.2,29.74,North,350,3.6,6.3,69,0.00,,,0.00,LWC V2.10 B1813,2013-11-07 14:34:00,
2013-11-07 08:39:00,48.4,37.9,29.74,North,11,2.7,6.3,67,0.00,,,0.00,LWC V2.10 B1813,2013-11-07 14:39:00,
2013-11-07 08:44:00,48.9,37.7,29.74,NW,326,5.4,8.3,65,0.00,,,0.00,LWC V2.10 B1813,2013-11-07 14:44:00,
2013-11-07 08:49:00,49.5,37.4,29.74,NNW,332,2.7,8.3,63,0.00,,,0.00,LWC V2.10 B1813,2013-11-07 14:49:00,
2013-11-07 08:54:00,50.0,37.1,29.74,NNW,341,8.3,10.1,61,0.00,,,0.00,LWC V2.10 B1813,2013-11-07 14:54:00,
2013-11-07 08:59:00,50.2,36.0,29.74,NNE,26,3.6,8.7,58,0.00,,,0.00,LWC V2.10 B1813,2013-11-07 14:59:00,
2013-11-07 09:04:00,50.5,35.9,29.74,North,357,3.6,8.7,57,0.00,,,0.00,LWC V2.10 B1813,2013-11-07 15:04:00,
2013-11-07 09:09:00,51.1,36.4,29.74,North,5,5.8,8.7,57,0.00,,,0.00,LWC V2.10 B1813,2013-11-07 15:09:00,
2013-11-07 09:14:00,51.3,36.1,29.74,North,0,6.7,6.7,56,0.00,,,0.00,LWC V2.10 B1813,2013-11-07 15:14:00,
2013-11-07 09:19:00,51.6,36.0,29.74,North,357,3.1,6.3,55,0.00,,,0.00,LWC V2.10 B1813,2013-11-07 15:19:00,
2013-11-07 09:24:00,52.3,36.2,29.74,North,357,6.3,7.2,54,0.00,,,0.00,LWC V2.10 B1813,2013-11-07 15:24:00,
2013-11-07 09:29:00,52.7,36.1,29.74,NNW,337,8.1,8.1,53,0.00,,,0.00,LWC V2.10 B1813,2013-11-07 15:29:00,
2013-11-07 09:34:00,53.1,36.4,29.74,NW,317,4.0,6.3,53,0.00,,,0.00,LWC V2.10 B1813,2013-11-07 15:34:00,
2013-11-07 09:39:00,53.4,36.2,29.74,North,11,7.6,7.6,52,0.00,,,0.00,LWC V2.10 B1813,2013-11-07 15:39:00,
2013-11-07 09:44:00,53.8,36.1,29.74,NNW,345,4.0,7.6,51,0.00,,,0.00,LWC V2.10 B1813,2013-11-07 15:44:00,
2013-11-07 09:49:00,54.0,35.7,29.74,NW,319,5.4,8.1,50,0.00,,,0.00,LWC V2.10 B1813,2013-11-07 15:49:00,
2013-11-07 09:54:00,54.1,35.9,29.74,NNW,346,5.4,8.1,50,0.00,,,0.00,LWC V2.10 B1813,2013-11-07 15:54:00,
2013-11-07 09:59:00,54.3,35.6,29.74,NNW,346,6.3,8.1,49,0.00,,,0.00,LWC V2.10 B1813,2013-11-07 15:59:00,
2013-11-07 10:04:00,54.5,36.2,29.74,NNE,12,2.7,4.9,50,0.00,,,0.00,LWC V2.10 B1813,2013-11-07 16:04:00,
2013-11-07 10:09:00,55.0,36.2,29.74,NNW,341,5.8,8.1,49,0.00,,,0.00,LWC V2.10 B1813,2013-11-07 16:09:00,
2013-11-07 10:14:00,55.6,36.7,29.74,NNW,348,6.7,8.7,49,0.00,,,0.00,LWC V2.10 B1813,2013-11-07 16:14:00,
2013-11-07 10:19:00,55.8,36.4,29.74,North,8,6.7,8.3,48,0.00,,,0.00,LWC V2.10 B1813,2013-11-07 16:19:00,
2013-11-07 10:24:00,56.1,37.2,29.74,NNW,333,3.1,4.9,49,0.00,,,0.00,LWC V2.10 B1813,2013-11-07 16:24:00,
2013-11-07 10:29:00,56.7,37.2,29.74,NW,324,5.4,6.7,48,0.00,,,0.00,LWC V2.10 B1813,2013-11-07 16:29:00,
2013-11-07 10:44:00,58.1,38.5,-100.00,North,353,3.1,5.8,48,-99.99,,,0.00,LWC V2.10 B1813,2013-11-07 16:44:00,
2013-11-07 10:49:00,58.3,38.1,29.74,North,2,6.3,10.5,47,0.00,,,0.00,LWC V2.10 B1813,2013-11-07 16:49:00,
2013-11-07 10:54:00,58.1,38.0,29.74,North,353,5.4,5.4,47,0.00,,,0.00,LWC V2.10 B1813,2013-11-07 16:54:00,
2013-11-07 10:59:00,58.1,37.4,29.74,NNW,336,5.8,8.1,46,0.00,,,0.00,LWC V2.10 B1813,2013-11-07 16:59:00,
2013-11-07 11:04:00,58.5,37.8,29.74,North,0,4.9,8.7,46,0.00,,,0.00,LWC V2.10 B1813,2013-11-07 17:04:00,
2013-11-07 11:09:00,59.2,37.9,29.74,North,353,6.3,12.3,45,0.00,,,0.00,LWC V2.10 B1813,2013-11-07 17:09:00,
2013-11-07 11:14:00,59.5,38.2,29.74,NNW,333,2.7,4.0,45,0.00,,,0.00,LWC V2.10 B1813,2013-11-07 17:14:00,
2013-11-07 11:19:00,59.9,38.5,29.71,NNE,26,3.6,7.6,45,0.00,,,0.00,LWC V2.10 B1813,2013-11-07 17:19:00,
2013-11-07 11:24:00,60.4,39.0,29.71,SSE,155,0.0,5.4,45,0.00,,,0.00,LWC V2.10 B1813,2013-11-07 17:24:00,
2013-11-07 11:29:00,61.7,39.6,29.71,NNE,21,4.9,6.3,44,0.00,,,0.00,LWC V2.10 B1813,2013-11-07 17:29:00,
2013-11-07 11:34:00,61.7,39.6,29.71,East,80,4.0,6.3,44,0.00,,,0.00,LWC V2.10 B1813,2013-11-07 17:34:00,
2013-11-07 11:39:00,61.9,39.7,29.71,North,357,6.3,8.1,44,0.00,,,0.00,LWC V2.10 B1813,2013-11-07 17:39:00,
2013-11-07 11:44:00,62.6,39.8,29.71,North,350,7.2,10.5,43,0.00,,,0.00,LWC V2.10 B1813,2013-11-07 17:44:00,
2013-11-07 11:49:00,62.6,39.8,29.71,NNE,12,8.3,8.7,43,0.00,,,0.00,LWC V2.10 B1813,2013-11-07 17:49:00,
2013-11-07 11:54:00,62.2,39.5,29.71,North,357,8.1,14.5,43,0.00,,,0.00,LWC V2.10 B1813,2013-11-07 17:54:00,
2013-11-07 11:59:00,61.0,37.7,29.71,NNW,344,5.4,8.7,42,0.00,,,0.00,LWC V2.10 B1813,2013-11-07 17:59:00,
2013-11-07 12:04:00,60.8,38.2,29.71,ENE,57,5.8,7.6,43,0.00,,,0.00,LWC V2.10 B1813,2013-11-07 18:04:00,
2013-11-07 12:09:00,61.0,38.3,29.71,NNE,22,3.1,8.7,43,0.00,,,0.00,LWC V2.10 B1813,2013-11-07 18:09:00,
2013-11-07 12:14:00,61.0,37.7,29.71,NNW,336,4.0,8.1,42,0.00,,,0.00,LWC V2.10 B1813,2013-11-07 18:14:00,
2013-11-07 12:19:00,60.6,37.4,29.71,NNE,14,11.4,11.4,42,0.00,,,0.00,LWC V2.10 B1813,2013-11-07 18:19:00,
2013-11-07 12:24:00,60.3,37.7,29.71,North,9,2.7,5.4,43,0.00,,,0.00,LWC V2.10 B1813,2013-11-07 18:24:00,
2013-11-07 12:29:00,60.6,38.0,29.71,NNE,28,3.6,5.8,43,0.00,,,0.00,LWC V2.10 B1813,2013-11-07 18:29:00,
2013-11-07 12:34:00,61.0,37.7,29.71,NNE,28,6.7,12.3,42,0.00,,,0.00,LWC V2.10 B1813,2013-11-07 18:34:00,
2013-11-07 12:39:00,61.9,37.9,29.71,NNE,29,0.0,8.1,41,0.00,,,0.00,LWC V2.10 B1813,2013-11-07 18:39:00,
2013-11-07 12:44:00,62.6,37.9,29.71,ENE,59,3.6,8.3,40,0.00,,,0.00,LWC V2.10 B1813,2013-11-07 18:44:00,
2013-11-07 12:49:00,63.1,39.1,29.68,NW,307,5.4,7.6,41,0.00,,,0.00,LWC V2.10 B1813,2013-11-07 18:49:00,
2013-11-07 12:54:00,62.6,38.6,29.68,NNE,21,3.6,5.8,41,0.00,,,0.00,LWC V2.10 B1813,2013-11-07 18:54:00,
2013-11-07 12:59:00,62.6,38.6,29.68,ENE,67,2.7,4.0,41,0.00,,,0.00,LWC V2.10 B1813,2013-11-07 18:59:00,
2013-11-07 13:04:00,63.0,38.9,29.68,ENE,74,3.1,4.9,41,0.00,,,0.00,LWC V2.10 B1813,2013-11-07 19:04:00,
2013-11-07 13:09:00,62.4,37.8,29.68,NE,44,3.6,7.2,40,0.00,,,0.00,LWC V2.10 B1813,2013-11-07 19:09:00,
2013-11-07 13:14:00,62.2,38.2,29.68,NE,54,3.6,4.9,41,0.00,,,0.00,LWC V2.10 B1813,2013-11-07 19:14:00,
2013-11-07 13:19:00,62.4,38.4,29.68,North,357,5.4,5.4,41,0.00,,,0.00,LWC V2.10 B1813,2013-11-07 19:19:00,
2013-11-07 13:24:00,62.6,38.6,29.68,NNW,340,3.6,4.5,41,0.00,,,0.00,LWC V2.10 B1813,2013-11-07 19:24:00,
2013-11-07 13:29:00,62.6,37.9,29.68,North,357,4.0,6.3,40,0.00,,,0.00,LWC V2.10 B1813,2013-11-07 19:29:00,
2013-11-07 13:34:00,62.1,37.5,29.68,NE,39,4.0,6.3,40,0.00,,,0.00,LWC V2.10 B1813,2013-11-07 19:34:00,
2013-11-07 13:39:00,62.2,38.2,29.68,North,0,0.0,4.0,41,0.00,,,0.00,LWC V2.10 B1813,2013-11-07 19:39:00,
2013-11-07 13:44:00,62.6,38.6,29.68,North,9,3.6,5.4,41,0.00,,,0.00,LWC V2.10 B1813,2013-11-07 19:44:00,
2013-11-07 13:49:00,63.0,38.3,29.65,NE,52,5.4,6.3,40,0.00,,,0.00,LWC V2.10 B1813,2013-11-07 19:49:00,
2013-11-07 13:54:00,63.3,38.6,29.65,North,7,6.7,6.7,40,0.00,,,0.00,LWC V2.10 B1813,2013-11-07 19:54:00,
2013-11-07 13:59:00,63.0,38.3,29.65,NNE,12,6.3,7.6,40,0.00,,,0.00,LWC V2.10 B1813,2013-11-07 19:59:00,
2013-11-07 14:04:00,62.6,37.9,29.65,NE,50,3.6,5.8,40,0.00,,,0.00,LWC V2.10 B1813,2013-11-07 20:04:00,
2013-11-07 14:09:00,63.0,38.9,29.65,North,357,3.6,3.6,41,0.00,,,0.00,LWC V2.10 B1813,2013-11-07 20:09:00,
2013-11-07 14:14:00,62.8,38.1,29.65,NNE,29,3.1,8.3,40,0.00,,,0.00,LWC V2.10 B1813,2013-11-07 20:14:00,
2013-11-07 14:19:00,62.6,37.9,29.65,NW,312,3.1,3.1,40,0.00,,,0.00,LWC V2.10 B1813,2013-11-07 20:19:00,
2013-11-07 14:24:00,62.4,37.8,29.65,NNE,19,3.1,5.8,40,0.00,,,0.00,LWC V2.10 B1813,2013-11-07 20:24:00,
2013-11-07 14:29:00,62.4,37.8,29.65,NNE,32,3.6,5.8,40,0.00,,,0.00,LWC V2.10 B1813,2013-11-07 20:29:00,
2013-11-07 14:34:00,62.6,37.3,29.65,NNE,31,0.0,5.8,39,0.00,,,0.00,LWC V2.10 B1813,2013-11-07 20:34:00,
2013-11-07 14:39:00,63.5,38.7,29.65,NE,36,2.2,4.0,40,0.00,,,0.00,LWC V2.10 B1813,2013-11-07 20:39:00,
2013-11-07 14:44:00,64.0,39.2,29.65,NE,49,0.0,4.9,40,0.00,,,0.00,LWC V2.10 B1813,2013-11-07 20:44:00,
2013-11-07 14:49:00,63.9,39.1,29.65,NNE,22,3.6,4.0,40,0.00,,,0.00,LWC V2.10 B1813,2013-11-07 20:49:00,
2013-11-07 14:54:00,63.5,38.7,29.65,North,4,4.0,8.1,40,0.00,,,0.00,LWC V2.10 B1813,2013-11-07 20:54:00,
2013-11-07 14:59:00,62.8,37.5,29.65,NE,48,6.3,8.1,39,0.00,,,0.00,LWC V2.10 B1813,2013-11-07 20:59:00,
2013-11-07 15:04:00,62.4,37.1,29.65,NNE,20,2.7,8.1,39,0.00,,,0.00,LWC V2.10 B1813,2013-11-07 21:04:00,
2013-11-07 15:09:00,62.2,37.0,29.65,North,0,3.1,5.4,39,0.00,,,0.00,LWC V2.10 B1813,2013-11-07 21:09:00,
2013-11-07 15:14:00,62.2,37.0,29.65,NNE,15,5.8,5.8,39,0.00,,,0.00,LWC V2.10 B1813,2013-11-07 21:14:00,
2013-11-07 15:19:00,62.1,36.8,29.65,NE,46,2.7,6.3,39,0.00,,,0.00,LWC V2.10 B1813,2013-11-07 21:19:00,
2013-11-07 15:24:00,62.1,36.8,29.65,ENE,60,0.0,4.0,39,0.00,,,0.00,LWC V2.10 B1813,2013-11-07 21:24:00,
2013-11-07 15:29:00,61.9,36.7,29.65,NNE,18,0.0,4.9,39,0.00,,,0.00,LWC V2.10 B1813,2013-11-07 21:29:00,
2013-11-07 15:34:00,62.1,37.5,29.62,North,357,3.1,3.6,40,0.00,,,0.00,LWC V2.10 B1813,2013-11-07 21:34:00,
2013-11-07 15:39:00,62.1,37.5,29.62,North,5,0.0,3.1,40,0.00,,,0.00,LWC V2.10 B1813,2013-11-07 21:39:00,
2013-11-07 15:44:00,62.1,37.5,29.62,North,0,0.0,0.0,40,0.00,,,0.00,LWC V2.10 B1813,2013-11-07 21:44:00,
2013-11-07 15:49:00,62.1,38.1,29.65,North,5,0.0,0.0,41,0.00,,,0.00,LWC V2.10 B1813,2013-11-07 21:49:00,
2013-11-07 15:54:00,61.9,37.9,29.65,North,9,0.0,0.0,41,0.00,,,0.00,LWC V2.10 B1813,2013-11-07 21:54:00,
2013-11-07 15:59:00,61.9,39.1,29.65,North,9,0.0,0.0,43,0.00,,,0.00,LWC V2.10 B1813,2013-11-07 21:59:00,
2013-11-07 16:04:00,61.5,38.8,29.65,NNE,32,0.0,0.0,43,0.00,,,0.00,LWC V2.10 B1813,2013-11-07 22:04:00,
2013-11-07 16:09:00,61.2,38.5,29.65,NNE,16,0.0,3.1,43,0.00,,,0.00,LWC V2.10 B1813,2013-11-07 22:09:00,
2013-11-07 16:14:00,61.0,38.3,29.65,NE,47,0.0,3.1,43,0.00,,,0.00,LWC V2.10 B1813,2013-11-07 22:14:00,
2013-11-07 16:19:00,60.8,38.2,29.65,ENE,63,0.0,0.0,43,0.00,,,0.00,LWC V2.10 B1813,2013-11-07 22:19:00,
2013-11-07 16:24:00,60.6,38.6,29.65,ENE,61,0.0,0.0,44,0.00,,,0.00,LWC V2.10 B1813,2013-11-07 22:24:00,
2013-11-07 16:29:00,60.4,38.4,29.65,NNE,18,0.0,3.1,44,0.00,,,0.00,LWC V2.10 B1813,2013-11-07 22:29:00,
2013-11-07 16:34:00,60.3,38.3,29.65,ENE,61,0.0,2.2,44,0.00,,,0.00,LWC V2.10 B1813,2013-11-07 22:34:00,
2013-11-07 16:39:00,60.1,38.1,29.65,NNE,12,2.2,2.2,44,0.00,,,0.00,LWC V2.10 B1813,2013-11-07 22:39:00,
2013-11-07 16:44:00,60.1,38.1,29.65,North,357,0.0,3.6,44,0.00,,,0.00,LWC V2.10 B1813,2013-11-07 22:44:00,
2013-11-07 16:49:00,60.1,38.1,29.65,NE,44,0.0,2.7,44,0.00,,,0.00,LWC V2.10 B1813,2013-11-07 22:49:00,
2013-11-07 16:54:00,59.9,37.9,29.65,NE,47,0.0,0.0,44,0.00,,,0.00,LWC V2.10 B1813,2013-11-07 22:54:00,
2013-11-07 16:59:00,59.5,38.2,29.65,North,4,0.0,3.1,45,0.00,,,0.00,LWC V2.10 B1813,2013-11-07 22:59:00,
2013-11-07 17:04:00,59.2,37.9,29.65,NE,42,0.0,0.0,45,0.00,,,0.00,LWC V2.10 B1813,2013-11-07 23:04:00,
2013-11-07 17:09:00,59.0,37.7,29.65,ENE,71,0.0,2.7,45,0.00,,,0.00,LWC V2.10 B1813,2013-11-07 23:09:00,
2013-11-07 17:14:00,58.6,37.4,29.65,NE,47,0.0,0.0,45,0.00,,,0.00,LWC V2.10 B1813,2013-11-07 23:14:00,
2013-11-07 17:19:00,58.5,37.2,29.65,NE,46,0.0,0.0,45,0.00,,,0.00,LWC V2.10 B1813,2013-11-07 23:19:00,
2013-11-07 17:24:00,58.5,37.2,29.65,NNE,23,2.2,2.2,45,0.00,,,0.00,LWC V2.10 B1813,2013-11-07 23:24:00,
2013-11-07 17:29:00,58.3,37.6,29.65,North,353,0.0,2.2,46,0.00,,,0.00,LWC V2.10 B1813,2013-11-07 23:29:00,
2013-11-07 17:34:00,58.3,37.6,29.65,NNE,22,3.6,3.6,46,0.00,,,0.00,LWC V2.10 B1813,2013-11-07 23:34:00,
2013-11-07 17:39:00,58.3,37.6,29.65,NNE,15,0.0,2.2,46,0.00,,,0.00,LWC V2.10 B1813,2013-11-07 23:39:00,
2013-11-07 17:44:00,58.1,37.4,29.65,North,8,0.0,0.0,46,0.00,,,0.00,LWC V2.10 B1813,2013-11-07 23:44:00,
2013-11-07 17:49:00,57.9,37.3,29.65,North,8,0.0,2.7,46,0.00,,,0.00,LWC V2.10 B1813,2013-11-07 23:49:00,
2013-11-07 17:54:00,57.9,37.3,29.65,North,0,2.7,3.6,46,0.00,,,0.00,LWC V2.10 B1813,2013-11-07 23:54:00,
2013-11-07 17:59:00,57.9,37.3,29.65,North,0,0.0,3.1,46,0.00,,,0.00,LWC V2.10 B1813,2013-11-07 23:59:00,
2013-11-07 18:04:00,57.7,37.6,29.65,North,357,0.0,0.0,47,0.00,,,0.00,LWC V2.10 B1813,2013-11-08 00:04:00,
2013-11-07 18:09:00,57.4,37.3,29.65,North,2,3.1,3.6,47,0.00,,,0.00,LWC V2.10 B1813,2013-11-08 00:09:00,
2013-11-07 18:14:00,57.0,37.5,29.65,NNE,14,0.0,2.2,48,0.00,,,0.00,LWC V2.10 B1813,2013-11-08 00:14:00,
2013-11-07 18:19:00,56.8,37.4,29.65,NNW,348,0.0,3.1,48,0.00,,,0.00,LWC V2.10 B1813,2013-11-08 00:19:00,
2013-11-07 18:24:00,56.8,37.4,29.65,NNW,343,3.1,3.1,48,0.00,,,0.00,LWC V2.10 B1813,2013-11-08 00:24:00,
2013-11-07 18:29:00,57.0,37.5,29.65,NNE,12,2.7,3.1,48,0.00,,,0.00,LWC V2.10 B1813,2013-11-08 00:29:00,
2013-11-07 18:34:00,56.8,37.4,29.65,NNE,29,0.0,3.1,48,0.00,,,0.00,LWC V2.10 B1813,2013-11-08 00:34:00,
2013-11-07 18:39:00,56.3,37.4,29.65,NE,35,2.7,3.1,49,0.00,,,0.00,LWC V2.10 B1813,2013-11-08 00:39:00,
2013-11-07 18:44:00,55.9,37.1,29.65,NNE,14,0.0,0.0,49,0.00,,,0.00,LWC V2.10 B1813,2013-11-08 00:44:00,
2013-11-07 18:49:00,55.6,36.7,29.65,NNE,23,0.0,0.0,49,0.00,,,0.00,LWC V2.10 B1813,2013-11-08 00:49:00,
2013-11-07 18:54:00,55.2,36.4,29.65,NNW,346,2.2,4.0,49,0.00,,,0.00,LWC V2.10 B1813,2013-11-08 00:54:00,
2013-11-07 18:59:00,55.2,36.4,29.65,ENE,62,0.0,2.7,49,0.00,,,0.00,LWC V2.10 B1813,2013-11-08 00:59:00,
2013-11-07 19:04:00,55.0,36.2,29.65,NNE,31,0.0,0.0,49,0.00,,,0.00,LWC V2.10 B1813,2013-11-08 01:04:00,
2013-11-07 19:09:00,55.2,36.4,29.65,North,2,2.7,3.6,49,0.00,,,0.00,LWC V2.10 B1813,2013-11-08 01:09:00,
2013-11-07 19:14:00,55.6,36.7,29.65,North,357,3.6,3.6,49,0.00,,,0.00,LWC V2.10 B1813,2013-11-08 01:14:00,
2013-11-07 19:19:00,55.8,36.9,29.65,North,1,0.0,0.0,49,0.00,,,0.00,LWC V2.10 B1813,2013-11-08 01:19:00,
2013-11-07 19:24:00,55.6,36.7,29.65,North,1,0.0,2.2,49,0.00,,,0.00,LWC V2.10 B1813,2013-11-08 01:24:00,
2013-11-07 19:29:00,55.6,36.7,29.65,North,1,0.0,3.1,49,0.00,,,0.00,LWC V2.10 B1813,2013-11-08 01:29:00,
2013-11-07 19:34:00,55.2,36.4,29.65,NE,55,0.0,0.0,49,0.00,,,0.00,LWC V2.10 B1813,2013-11-08 01:34:00,
2013-11-07 19:39:00,54.9,36.1,29.65,NE,41,0.0,2.7,49,0.00,,,0.00,LWC V2.10 B1813,2013-11-08 01:39:00,
2013-11-07 19:44:00,54.7,35.9,29.65,NNE,33,2.7,2.7,49,0.00,,,0.00,LWC V2.10 B1813,2013-11-08 01:44:00,
2013-11-07 19:49:00,55.0,36.2,29.65,North,357,2.7,2.7,49,0.00,,,0.00,LWC V2.10 B1813,2013-11-08 01:49:00,
2013-11-07 19:54:00,55.2,36.4,29.65,WNW,296,2.2,4.0,49,0.00,,,0.00,LWC V2.10 B1813,2013-11-08 01:54:00,
2013-11-07 19:59:00,55.0,36.7,29.65,North,349,0.0,0.0,50,0.00,,,0.00,LWC V2.10 B1813,2013-11-08 01:59:00,
2013-11-07 20:04:00,54.9,36.6,29.65,NW,325,2.2,3.1,50,0.00,,,0.00,LWC V2.10 B1813,2013-11-08 02:04:00,
2013-11-07 20:09:00,54.9,36.6,29.65,North,4,2.2,4.0,50,0.00,,,0.00,LWC V2.10 B1813,2013-11-08 02:09:00,
2013-11-07 20:14:00,54.7,36.4,29.65,North,353,0.0,3.1,50,0.00,,,0.00,LWC V2.10 B1813,2013-11-08 02:14:00,
2013-11-07 20:19:00,54.5,36.2,29.65,North,2,0.0,0.0,50,0.00,,,0.00,LWC V2.10 B1813,2013-11-08 02:19:00,
2013-11-07 20:24:00,54.3,36.1,29.65,North,357,2.7,2.7,50,0.00,,,0.00,LWC V2.10 B1813,2013-11-08 02:24:00,
2013-11-07 20:29:00,54.1,35.9,29.65,North,10,0.0,0.0,50,0.00,,,0.00,LWC V2.10 B1813,2013-11-08 02:29:00,
2013-11-07 20:34:00,54.3,36.1,29.68,North,3,0.0,0.0,50,0.00,,,0.00,LWC V2.10 B1813,2013-11-08 02:34:00,
2013-11-07 20:39:00,54.5,36.2,29.68,North,3,0.0,0.0,50,0.00,,,0.00,LWC V2.10 B1813,2013-11-08 02:39:00,
2013-11-07 20:44:00,54.5,36.2,29.68,North,6,0.0,0.0,50,0.00,,,0.00,LWC V2.10 B1813,2013-11-08 02:44:00,
2013-11-07 20:49:00,54.5,36.2,29.68,North,350,4.9,4.9,50,0.00,,,0.00,LWC V2.10 B1813,2013-11-08 02:49:00,
2013-11-07 20:54:00,54.7,36.4,29.68,NNE,27,0.0,0.0,50,0.00,,,0.00,LWC V2.10 B1813,2013-11-08 02:54:00,
2013-11-07 20:59:00,54.5,36.2,29.68,North,8,0.0,2.2,50,0.00,,,0.00,LWC V2.10 B1813,2013-11-08 02:59:00,
2013-11-07 21:04:00,54.3,36.6,29.68,North,7,0.0,0.0,51,0.00,,,0.00,LWC V2.10 B1813,2013-11-08 03:04:00,
2013-11-07 21:09:00,54.0,36.2,29.68,North,7,0.0,0.0,51,0.00,,,0.00,LWC V2.10 B1813,2013-11-08 03:09:00,
2013-11-07 21:14:00,53.8,36.1,29.68,North,7,0.0,0.0,51,0.00,,,0.00,LWC V2.10 B1813,2013-11-08 03:14:00,
2013-11-07 21:19:00,53.8,36.6,29.65,North,7,0.0,0.0,52,0.00,,,0.00,LWC V2.10 B1813,2013-11-08 03:19:00,
2013-11-07 21:24:00,53.8,36.6,29.65,NNE,25,0.0,0.0,52,0.00,,,0.00,LWC V2.10 B1813,2013-11-08 03:24:00,
2013-11-07 21:29:00,53.4,36.7,29.65,North,2,0.0,0.0,53,0.00,,,0.00,LWC V2.10 B1813,2013-11-08 03:29:00,
2013-11-07 21:34:00,53.6,36.4,29.68,NW,316,0.0,3.6,52,0.00,,,0.00,LWC V2.10 B1813,2013-11-08 03:34:00,
2013-11-07 21:39:00,53.8,36.6,29.68,North,353,0.0,0.0,52,0.00,,,0.00,LWC V2.10 B1813,2013-11-08 03:39:00,
2013-11-07 21:44:00,53.8,37.5,29.68,NW,304,0.0,2.2,54,0.00,,,0.00,LWC V2.10 B1813,2013-11-08 03:44:00,
2013-11-07 21:49:00,53.4,38.6,29.68,NW,304,0.0,0.0,57,0.00,,,0.00,LWC V2.10 B1813,2013-11-08 03:49:00,
2013-11-07 21:54:00,53.1,38.7,29.68,NW,326,0.0,0.0,58,0.00,,,0.00,LWC V2.10 B1813,2013-11-08 03:54:00,
2013-11-07 21:59:00,53.1,38.2,29.68,NNW,328,0.0,0.0,57,0.00,,,0.00,LWC V2.10 B1813,2013-11-08 03:59:00,
2013-11-07 22:04:00,53.2,38.4,29.68,NNW,328,0.0,0.0,57,0.00,,,0.00,LWC V2.10 B1813,2013-11-08 04:04:00,
2013-11-07 22:09:00,53.2,38.4,29.68,NNW,336,0.0,2.2,57,0.00,,,0.00,LWC V2.10 B1813,2013-11-08 04:09:00,
2013-11-07 22:14:00,53.2,38.0,29.68,North,353,3.1,3.6,56,0.00,,,0.00,LWC V2.10 B1813,2013-11-08 04:14:00,
2013-11-07 22:19:00,53.4,37.7,29.65,North,10,0.0,0.0,55,0.00,,,0.00,LWC V2.10 B1813,2013-11-08 04:19:00,
2013-11-07 22:24:00,53.6,37.4,29.65,North,357,0.0,0.0,54,0.00,,,0.00,LWC V2.10 B1813,2013-11-08 04:24:00,
2013-11-07 22:29:00,53.8,38.0,29.65,NW,321,0.0,2.7,55,0.00,,,0.00,LWC V2.10 B1813,2013-11-08 04:29:00,
2013-11-07 22:34:00,53.2,39.3,29.68,NW,319,2.7,2.7,59,0.00,,,0.00,LWC V2.10 B1813,2013-11-08 04:34:00,
2013-11-07 22:39:00,52.9,40.2,29.68,NW,305,2.2,3.1,62,0.00,,,0.00,LWC V2.10 B1813,2013-11-08 04:39:00,
2013-11-07 22:44:00,52.7,40.9,29.68,NW,305,2.7,2.7,64,0.00,,,0.00,LWC V2.10 B1813,2013-11-08 04:44:00,
2013-11-07 22:49:00,52.5,41.5,29.68,NW,304,2.2,3.1,66,0.00,,,0.00,LWC V2.10 B1813,2013-11-08 04:49:00,
2013-11-07 22:54:00,52.3,42.1,29.68,WNW,294,0.0,3.6,68,0.00,,,0.00,LWC V2.10 B1813,2013-11-08 04:54:00,
2013-11-07 22:59:00,52.2,41.9,29.68,WNW,294,0.0,0.0,68,0.00,,,0.00,LWC V2.10 B1813,2013-11-08 04:59:00,
2013-11-07 23:01:00,52.2,42.3,29.68,WNW,294,0.0,0.0,69,0.00,,,0.00,LWC V2.10 B1813,2013-11-08 05:01:00,
2013-11-07 23:02:00,52.2,42.3,29.68,WNW,294,0.0,0.0,69,0.00,,,0.00,LWC V2.10 B1813,2013-11-08 05:02:00,
2013-11-07 23:07:00,52.0,42.1,29.68,WNW,294,0.0,0.0,69,0.00,,,0.00,LWC V2.10 B1813,2013-11-08 05:07:00,
2013-11-07 23:12:00,51.8,42.0,29.68,WNW,294,0.0,0.0,69,0.00,,,0.00,LWC V2.10 B1813,2013-11-08 05:12:00,
2013-11-07 23:17:00,51.6,42.2,29.68,WNW,294,0.0,0.0,70,0.00,,,0.00,LWC V2.10 B1813,2013-11-08 05:17:00,
2013-11-07 23:22:00,51.4,41.6,29.65,WNW,294,0.0,0.0,69,0.00,,,0.00,LWC V2.10 B1813,2013-11-08 05:22:00,
2013-11-07 23:27:00,51.6,41.8,29.65,WNW,294,0.0,0.0,69,0.00,,,0.00,LWC V2.10 B1813,2013-11-08 05:27:00,
2013-11-07 23:32:00,51.8,41.2,29.65,WNW,294,0.0,0.0,67,0.00,,,0.00,LWC V2.10 B1813,2013-11-08 05:32:00,
2013-11-07 23:37:00,51.8,40.4,29.65,WNW,294,0.0,0.0,65,0.00,,,0.00,LWC V2.10 B1813,2013-11-08 05:37:00,
2013-11-07 23:43:00,52.0,40.2,29.65,WNW,294,0.0,0.0,64,0.00,,,0.00,LWC V2.10 B1813,2013-11-08 05:43:00,
2013-11-07 23:48:00,52.2,40.0,29.65,WNW,294,0.0,0.0,63,0.00,,,0.00,LWC V2.10 B1813,2013-11-08 05:48:00,
2013-11-07 23:53:00,52.5,39.9,29.65,WNW,294,0.0,0.0,62,0.00,,,0.00,LWC V2.10 B1813,2013-11-08 05:53:00,
2013-11-07 23:58:00,52.7,39.6,29.65,NNW,331,0.0,0.0,61,0.00,,,0.00,LWC V2.10 B1813,2013-11-08 05:58:00,